logo tempoitalia

Diretta Meteo Santa Ynez, Stati Uniti (USA)domenica 30 agosto ore 23:35

Mappa
Sereno 12 °C Coperto 24 Ore: T.min 12 T.max 26
Ponente Nord Km/h 0 Punto di rugiada: 12 °C Umidità: 100% Visibilità: 11 Km
Il sole sorge alle: 06:32 Il sole tramonta alle: 19:29
30 Agosto 2026 23:35 tempo osservato: Coperto Coperto 12 100 1014 vento: Nord N 0
30 Agosto 2026 23:15 tempo osservato: Molto Nuvoloso Molto Nuvoloso 12 100 1014 vento: Nord N 0
30 Agosto 2026 22:55 tempo osservato: Molto Nuvoloso Molto Nuvoloso 13 93 1014 vento: Nord N 5.5
30 Agosto 2026 22:35 tempo osservato: Coperto Coperto 13 93 1014 vento: Nord N 0
30 Agosto 2026 22:15 tempo osservato: Coperto Coperto 13 93 1014 vento: Nord N 0
30 Agosto 2026 21:55 tempo osservato: Coperto Coperto 13 93 1014 vento: Nord N 5.5
30 Agosto 2026 21:35 tempo osservato: Coperto Coperto 14 87 1014 vento: Nord N 5.5
30 Agosto 2026 21:15 tempo osservato: Coperto Coperto 14 93 1014 vento: Nord N 5.5
30 Agosto 2026 20:55 tempo osservato: Coperto Coperto 15 87 1013 vento: Nord O/SO 7.4
30 Agosto 2026 20:35 tempo osservato: Coperto Coperto 15 87 1013 vento: Nord O 11.1
30 Agosto 2026 20:15 tempo osservato: Coperto Coperto 16 82 1013 vento: Nord O 11.1
30 Agosto 2026 19:55 tempo osservato: Molto Nuvoloso Molto Nuvoloso 16 82 1012 vento: Nord O/SO 7.4
30 Agosto 2026 19:35 tempo osservato: Sereno Sereno 17 77 1012 vento: Nord O/SO 7.4
30 Agosto 2026 19:15 tempo osservato: Sereno Sereno 18 72 1012 vento: Nord O 14.8
30 Agosto 2026 18:55 tempo osservato: Sereno Sereno 19 63 1012 vento: Nord O/SO 13
30 Agosto 2026 18:35 tempo osservato: Sereno Sereno 20 59 1012 vento: Nord O/SO 14.8
30 Agosto 2026 18:15 tempo osservato: Sereno Sereno 20 59 1012 vento: Nord O 14.8
30 Agosto 2026 17:55 tempo osservato: Sereno Sereno 21 56 1012 vento: Nord O/SO 16.7
30 Agosto 2026 17:35 tempo osservato: Sereno Sereno 22 53 1012 vento: Nord O/SO 14.8
30 Agosto 2026 17:15 tempo osservato: Sereno Sereno 23 49 1012 vento: Nord O/SO 20.3
30 Agosto 2026 16:55 tempo osservato: Sereno Sereno 24 50 1012 vento: Nord O 18.5
30 Agosto 2026 16:35 tempo osservato: Sereno Sereno 24 50 1012 vento: Nord O/SO 18.5
30 Agosto 2026 16:15 tempo osservato: Sereno Sereno 24 50 1012 vento: Nord O 16.7
30 Agosto 2026 15:55 tempo osservato: Sereno Sereno 25 47 1012 vento: Nord O/SO 20.3
30 Agosto 2026 15:35 tempo osservato: Sereno Sereno 25 47 1012 vento: Nord O 18.5
30 Agosto 2026 15:15 tempo osservato: Sereno Sereno 26 44 1012 vento: Nord O 16.7
30 Agosto 2026 14:55 tempo osservato: Sereno Sereno 25 47 1012 vento: Nord O 20.3
30 Agosto 2026 14:35 tempo osservato: Sereno Sereno 25 47 1013 vento: Nord O 20.3
30 Agosto 2026 14:15 tempo osservato: Sereno Sereno 25 47 1013 vento: Nord O 20.3
30 Agosto 2026 13:55 tempo osservato: Sereno Sereno 26 44 1013 vento: Nord O 18.5
30 Agosto 2026 13:35 tempo osservato: Sereno Sereno 26 44 1013 vento: Nord O 20.3
30 Agosto 2026 13:15 tempo osservato: Sereno Sereno 25 47 1013 vento: Nord O 16.7
30 Agosto 2026 12:55 tempo osservato: Sereno Sereno 25 47 1013 vento: Nord O 16.7
30 Agosto 2026 12:35 tempo osservato: Sereno Sereno 25 47 1014 vento: Nord O 13
30 Agosto 2026 12:15 tempo osservato: Sereno Sereno 24 50 1014 vento: Nord N 11.1
30 Agosto 2026 11:55 tempo osservato: Sereno Sereno 23 49 1014 vento: Nord O 9.3
30 Agosto 2026 11:35 tempo osservato: Sereno Sereno 22 56 1014 vento: Nord O 9.3
30 Agosto 2026 11:15 tempo osservato: Sereno Sereno 21 60 1014 vento: Nord N 11.1
30 Agosto 2026 10:55 tempo osservato: Sereno Sereno 20 64 1014 vento: Nord O 9.3
30 Agosto 2026 10:35 tempo osservato: Sereno Sereno 19 68 1014 vento: Nord O 9.3
30 Agosto 2026 10:15 tempo osservato: Sereno Sereno 17 77 1014 vento: Nord N 0
30 Agosto 2026 09:55 tempo osservato: Poco Nuvoloso Poco Nuvoloso 14 100 1014 vento: Nord N 0
30 Agosto 2026 09:35 tempo osservato: Molto Nuvoloso Molto Nuvoloso 13 100 1014 vento: Nord N 0
30 Agosto 2026 09:15 tempo osservato: Foschia Foschia 12 100 1014 vento: Nord N 0
30 Agosto 2026 08:55 tempo osservato: Foschia Foschia 12 100 1014 vento: Nord N 5.5
30 Agosto 2026 08:35 tempo osservato: Nebbia Nebbia 12 100 1014 vento: Nord N 0
30 Agosto 2026 08:15 tempo osservato: Nebbia Nebbia 12 100 1014 vento: Nord N 0
30 Agosto 2026 07:55 tempo osservato: Nebbia Nebbia 12 100 1014 vento: Nord N 0
30 Agosto 2026 07:35 tempo osservato: Nebbia Nebbia 12 100 1014 vento: Nord N 0
30 Agosto 2026 07:15 tempo osservato: Nebbia Nebbia 12 100 1014 vento: Nord N 0
30 Agosto 2026 06:55 tempo osservato: Nebbia Nebbia 12 100 1014 vento: Nord N 0
30 Agosto 2026 06:35 tempo osservato: Nebbia Nebbia 12 100 1014 vento: Nord N 0
30 Agosto 2026 06:15 tempo osservato: Nebbia Nebbia 12 100 1013 vento: Nord N 0
30 Agosto 2026 05:55 tempo osservato: Nebbia Nebbia 12 100 1013 vento: Nord N 0
30 Agosto 2026 05:35 tempo osservato: Nebbia Nebbia 12 100 1013 vento: Nord N 0
30 Agosto 2026 05:15 tempo osservato: Nebbia Nebbia 12 100 1013 vento: Nord N 0
30 Agosto 2026 04:55 tempo osservato: Nebbia Nebbia 12 100 1013 vento: Nord N 0
30 Agosto 2026 04:35 tempo osservato: Nebbia Nebbia 12 100 1013 vento: Nord N 0
30 Agosto 2026 04:15 tempo osservato: Nebbia Nebbia 12 100 1013 vento: Nord N 0
30 Agosto 2026 03:55 tempo osservato: Nebbia Nebbia 12 100 1013 vento: Nord N 0
30 Agosto 2026 03:35 tempo osservato: Nebbia Nebbia 12 100 1013 vento: Nord N 0
30 Agosto 2026 03:15 tempo osservato: Nebbia Nebbia 12 100 1013 vento: Nord N 0
30 Agosto 2026 02:55 tempo osservato: Nebbia Nebbia 12 100 1013 vento: Nord O/SO 7.4
30 Agosto 2026 02:35 tempo osservato: Nebbia Nebbia 12 100 1013 vento: Nord O/SO 7.4
30 Agosto 2026 02:15 tempo osservato: Nebbia Nebbia 12 100 1013 vento: Nord N 5.5
30 Agosto 2026 01:55 tempo osservato: Foschia Foschia 12 100 1013 vento: Nord O/SO 7.4
30 Agosto 2026 01:35 tempo osservato: Foschia Foschia 12 100 1013 vento: Nord N 0
30 Agosto 2026 01:15 tempo osservato: Poco Nuvoloso Poco Nuvoloso 12 100 1013 vento: Nord N 0
30 Agosto 2026 00:55 tempo osservato: Sereno Sereno 12 100 1013 vento: Nord N 0
30 Agosto 2026 00:35 tempo osservato: Sereno Sereno 13 93 1014 vento: Nord N 0
30 Agosto 2026 00:15 tempo osservato: Poco Nuvoloso Poco Nuvoloso 13 100 1013 vento: Nord N 0
29 Agosto 2026 23:55 tempo osservato: Sereno Sereno 13 100 1013 vento: Nord N 0
29 Agosto 2026 23:35 tempo osservato: Sereno Sereno 13 100 1013 vento: Nord N 5.5